Weather History for Ocala, FL

Change the Weather History Date:

Monday, February 4, 2013

  Actual Average Record
Temperature  
Mean Temperature 50 °F -  
Max Temperature 66 °F 67 °F 82 °F (2008)
Min Temperature 33 °F 44 °F 33 °F (2009)
Degree Days  
Heating Degree Days 16    
Moisture  
Dew Point 31 °F    
Average Humidity 59    
Maximum Humidity 93    
Minimum Humidity 26    
Precipitation  
Precipitation 0.00 in - - ()
Sea Level Pressure  
Sea Level Pressure 30.11 in    
Wind  
Wind Speed 1 mph (SW)    
Max Wind Speed 9 mph    
Max Gust Speed -    
Visibility 10 miles    
Events      
Averages and records for this station are not official NWS values.
T = Trace of Precipitation, MM = Missing Value Source: NWS Daily Summary

Daily Weather History Graph

Daily Weather History Graph

Search for Another Location

Airport:

Trip Planner

Search our weather history database for the weather conditions in past years. The results will help you decide how hot, cold, wet, or windy it might be!

Date:

Astronomy

Feb. 04, 2013 Rise Set
Actual Time 7:15 AM EST 6:10 PM EST
Civil Twilight 6:51 AM EST 6:34 PM EST
Nautical Twilight 6:22 AM EST 7:03 PM EST
Astronomical Twilight 5:55 AM EST 7:31 PM EST
Moon 1:44 AM EST (2/4) 12:39 PM EST (2/4)
Length of Visible Light 11h 43m
Length of Day
10h 54m
Last Quarter, 37% of the Moon is Illuminated
Feb 4
Last Quarter
Feb 10
New
Feb 17
First Quarter
Feb 25
Full
Mar 4
Last Quarter

Hourly Weather History & Observations

Time (EST) Temp. Windchill Dew Point Humidity Pressure Visibility Wind Dir Wind Speed Gust Speed Precip Events Conditions
12:15 AM 42.8 °F - 33.8 °F 70% 30.13 in 10.0 mi Calm Calm - N/A   Clear
12:35 AM 41.0 °F - 33.8 °F 76% 30.13 in 10.0 mi Calm Calm - N/A   Clear
12:55 AM 41.0 °F - 33.8 °F 76% 30.12 in 10.0 mi Calm Calm - N/A   Clear
1:15 AM 39.2 °F - 30.2 °F 70% 30.13 in 10.0 mi Calm Calm - N/A   Clear
1:35 AM 37.4 °F - 30.2 °F 75% 30.13 in 10.0 mi Calm Calm - N/A   Clear
1:55 AM 37.4 °F - 30.2 °F 75% 30.13 in 10.0 mi Calm Calm - N/A   Clear
2:15 AM 37.4 °F - 30.2 °F 75% 30.12 in 10.0 mi Calm Calm - N/A   Clear
2:35 AM 37.4 °F - 32.0 °F 81% 30.12 in 10.0 mi Calm Calm - N/A   Clear
2:55 AM 37.4 °F - 30.2 °F 75% 30.11 in 10.0 mi Calm Calm - N/A   Clear
3:15 AM 35.6 °F 32.8 °F 28.4 °F 75% 30.12 in 10.0 mi South 3.5 mph - N/A   Clear
3:35 AM 37.4 °F 34.9 °F 30.2 °F 75% 30.12 in 10.0 mi South 3.5 mph - N/A   Clear
3:55 AM 37.4 °F - 30.2 °F 75% 30.12 in 10.0 mi Calm Calm - N/A   Clear
4:15 AM 37.4 °F - 30.2 °F 75% 30.11 in 10.0 mi Calm Calm - N/A   Clear
5:55 AM 33.8 °F - 28.4 °F 81% 30.13 in 10.0 mi Calm Calm - N/A   Clear
6:15 AM 33.8 °F - 26.6 °F 75% 30.13 in 10.0 mi Calm Calm - N/A   Clear
6:35 AM 33.8 °F - 26.6 °F 75% 30.14 in 10.0 mi Calm Calm - N/A   Clear
6:50 AM 35.6 °F - 33.8 °F 93% 30.14 in 10.0 mi Calm Calm - N/A   Clear
7:50 AM 37.4 °F - 33.8 °F 87% 30.13 in 10.0 mi Calm Calm - N/A   Clear
8:50 AM 48.2 °F - 41.0 °F 76% 30.13 in 10.0 mi Calm Calm - N/A   Clear
10:50 AM 62.6 °F - 37.4 °F 39% 30.15 in 10.0 mi ENE 4.6 mph - N/A   Clear
11:50 AM 64.4 °F - 32.0 °F 30% 30.14 in 10.0 mi SW 5.8 mph - N/A   Clear
12:50 PM 64.4 °F - 28.4 °F 26% 30.11 in 10.0 mi SSW 9.2 mph - N/A   Clear
1:50 PM 64.4 °F - 28.4 °F 26% 30.09 in 10.0 mi South 9.2 mph - N/A   Clear
2:50 PM 66.2 °F - 33.8 °F 30% 30.08 in 10.0 mi SSW 3.5 mph - N/A   Clear
3:50 PM 64.4 °F - 32.0 °F 30% 30.08 in 10.0 mi West 5.8 mph - N/A   Clear
4:50 PM 64.4 °F - 32.0 °F 30% 30.08 in 10.0 mi West 4.6 mph - N/A   Clear
5:50 PM 62.6 °F - 32.0 °F 32% 30.09 in 10.0 mi West 3.5 mph - N/A   Clear
6:50 PM 57.2 °F - 32.0 °F 38% 30.09 in 10.0 mi West 3.5 mph - N/A   Clear
7:55 PM 51.8 °F - 28.4 °F 41% 30.09 in 10.0 mi Calm Calm - N/A   Clear
8:15 PM 48.2 °F - 28.4 °F 46% 30.09 in 10.0 mi Calm Calm - N/A   Clear
8:35 PM 48.2 °F - 30.2 °F 50% 30.10 in 10.0 mi Calm Calm - N/A   Clear
8:55 PM 48.2 °F - 28.4 °F 46% 30.10 in 10.0 mi Calm Calm - N/A   Clear
9:15 PM 46.4 °F - 28.4 °F 50% 30.10 in 10.0 mi Calm Calm - N/A   Clear
9:35 PM 46.4 °F - 28.4 °F 50% 30.11 in 10.0 mi Calm Calm - N/A   Clear
9:55 PM 44.6 °F - 28.4 °F 53% 30.11 in 10.0 mi Calm Calm - N/A   Clear
10:15 PM 42.8 °F - 28.4 °F 57% 30.11 in 10.0 mi Calm Calm - N/A   Clear
10:35 PM 42.8 °F - 28.4 °F 57% 30.11 in 10.0 mi Calm Calm - N/A   Clear
10:55 PM 42.8 °F - 28.4 °F 57% 30.11 in 10.0 mi Calm Calm - N/A   Clear
11:15 PM 41.0 °F - 28.4 °F 61% 30.11 in 10.0 mi Calm Calm - N/A   Clear
11:35 PM 39.2 °F - 28.4 °F 65% 30.11 in 10.0 mi Calm Calm - N/A   Clear
11:55 PM 39.2 °F - 28.4 °F 65% 30.10 in 10.0 mi Calm Calm - N/A   Clear